FALCON EYE 2 (47226 NORAD) Tracking and Keplerian Element Data

This shows tracking and keplerian element data for the satellite.

Feedback or suggestion? Click here.




ElementValue
Catalog47226
NameFALCON EYE 2
Epoch Orbit669
Epoch Day16.13711907
Epoch Year2021
RAAN93.2857
Inclination97.8629
Eccentricity0.0001466
Argument of Perigee88.3512
Mean Anonmoly271.7872
Mean Motion14.84896299
Decay Rate2.35E-06
L11 47226U 20090A 21016.13711907 .00000235 00000-0 33917-4 0 9998
L22 47226 97.8629 93.2857 0001466 88.3512 271.7872 14.84896299 6697

Live tracking and technical data element details for FALCON EYE 2 (NORAD 47226). FALCON EYE 2 can be tracked NOW for your location showing map with azimuth and elevation plus other details from your city location.

Track the satellite on the map from your city or location and see movement details for azimuth, elevation, latitude, longitude, range, height, and movement on the map or in text.







IsCatalogInMostPopularTable: catalog: 47226, numindb: 17
Update: records affected: 1



GetName: 47226 FALCON EYE 2

Hit Count: updated at: Sun, 17 Jan 2021 09:18:40 GMT